BEIDOU-3 IGSO-3 (C40)

Last updated on Sun Apr 12 2026 00:03:31 GMT+0000 (Coordinated Universal Time)

1 44709U 19073A 26100.90165407 -.00000155 00000+0 00000+0 0 9995 2 44709 54.9178 281.6213 0041548 188.5293 171.3607 1.00257502 23788
UTC large
Height (km)
Speed (km/s)
/
Latitude / Longitude
Inclination (degrees)
Orbital Period (minutes)
Azimuth
Elevation
Range (km)
Doppler Factor

Next 0 passes for location: London (51.5072 / 0.1276)

No passes found over London.
BEIDOU-3 IGSO-3 (C40)